Location: Betz
(49.1556°N, 2.9558°E)
Time: 08:22:24
(UTC+00:00)

BREEZE M DEB (TANK) - Pass Details

Date: 18 September 2019
Orbit: 281 x 14544 km, 49.5° (Epoch: 20 October)

Event Time Altitude Azimuth Distance (km) Brightness Sun altitude
Rises 19:09:38 0° 263° (W) 1,933 6.4 -12.7°
Reaches altitude 10° 19:11:05 10° 264° (W) 1,178 5.1 -12.9°
Maximum altitude 19:13:14 87° 354° (N) 401 1.6 -13.3°
Enters shadow 19:15:43 19° 83° (E) 1,421 3.9 -13.6°
